GFSSE_prec_cthk_000.txt.gz
RH
54 47 47 47 46 49 52 60 64 65 58 58 56 55 58 58 58 62 64 71 75 73 73 62 62 70 73 69 67 60 46 43 45 49 37 36 45 75 69 56 53 38 34
46 44 41 42 45 47 47 52 52 52 48 54 52 50 54 57 55 55 60 65 70 76 70 69 59 63 74 76 74 77 62 53 37 35 34 35 36 47 49 40 40 33 32
46 44 41 42 44 45 45 46 46 49 49 51 49 49 49 53 56 60 64 64 65 57 55 54 49 56 69 70 76 79 71 64 51 36 33 31 36 41 41 31 25 22 21
49 47 40 38 37 38 41 40 39 38 43 44 40 38 40 42 49 54 53 58 56 51 47 51 48 52 57 70 75 88 84 70 55 45 36 31 37 40 34 29 26 22 25
40 39 37 37 36 34 32 33 33 35 35 36 34 34 33 38 42 43 44 49 47 46 45 45 46 48 49 63 59 56 70 74 58 45 38 27 27 38 40 32 24 23 26
33 31 28 30 30 30 31 33 34 33 33 31 28 24 26 31 34 36 37 35 35 39 44 43 50 54 50 56 47 52 58 73 62 52 45 31 29 25 32 32 28 19 26
29 31 31 31 31 30 30 32 33 30 29 25 26 23 23 24 27 28 28 28 30 28 31 35 43 50 55 57 55 46 48 62 73 62 53 40 32 30 32 30 29 26 23
33 32 31 36 35 33 31 28 25 22 19 21 21 20 22 23 24 25 23 23 25 27 28 28 27 29 29 32 32 35 48 53 64 70 64 50 43 36 35 36 31 33 26
31 31 32 33 31 30 24 24 22 20 20 20 19 21 22 22 23 23 24 24 24 25 28 32 34 36 38 40 39 46 44 65 67 71 80 69 56 48 43 42 43 36 35
34 32 35 28 24 23 23 26 27 28 30 32 32 23 21 22 25 25 18 16 15 19 21 24 25 26 32 44 47 53 56 53 67 69 77 76 61 56 53 52 52 50 46
44 45 40 33 29 31 31 28 26 28 32 34 30 22 19 20 19 17 14 11 12 12 12 15 17 21 28 32 37 49 50 54 54 55 62 69 63 57 63 56 58 62 60
45 44 38 33 23 19 17 17 17 16 19 22 19 16 17 16 16 14 12 12 12 12 11 13 15 19 23 30 37 40 41 42 44 49 56 61 60 65 67 64 68 68 67
39 38 30 26 17 14 13 15 16 16 18 19 18 18 18 17 16 16 16 16 16 16 15 18 19 19 21 26 29 29 32 41 38 43 53 59 64 60 63 67 65 67 72
29 25 24 20 18 16 15 16 17 21 25 24 26 26 25 23 22 22 20 20 21 20 20 23 24 24 23 23 22 22 27 32 38 45 50 66 69 70 70 75 81 75 76
25 25 23 22 21 20 19 21 26 29 30 31 31 30 30 28 29 29 29 29 29 28 28 28 28 29 30 29 27 27 28 30 33 41 53 60 70 71 74 76 80 86 86
25 23 21 20 22 24 24 26 31 33 33 34 35 35 32 32 32 33 34 35 36 35 34 32 31 31 31 31 30 30 29 30 35 40 50 58 60 78 75 77 80 84 88
26 25 27 27 27 26 26 27 31 31 32 31 31 31 33 34 34 35 35 37 38 39 40 40 39 38 38 37 37 36 36 35 36 41 51 52 50 53 62 73 79 84 83
28 28 28 28 28 27 27 28 30 33 36 37 37 38 38 38 39 39 38 40 40 41 42 44 45 46 46 47 47 46 45 43 39 36 36 42 53 59 62 69 78 90 88
26 27 29 30 31 32 33 35 36 38 40 42 42 43 43 43 45 46 46 46 47 48 49 50 51 51 51 51 51 51 51 49 48 44 41 38 34 48 63 72 79 83 92
30 32 33 34 34 37 38 40 42 44 44 45 46 47 48 50 53 53 52 52 54 54 54 55 56 56 57 57 56 57 57 56 54 53 49 46 45 40 44 61 72 77 83
35 37 38 38 40 43 44 46 47 48 48 48 49 49 51 53 55 56 56 56 57 57 57 59 60 61 62 62 61 60 56 55 56 55 55 54 54 51 47 43 52 72 76
41 41 44 47 48 50 49 49 50 50 50 51 53 54 55 56 58 59 60 60 61 61 61 61 63 64 65 65 64 63 60 56 53 54 57 57 55 58 57 55 48 50 69
41 42 45 49 52 53 52 50 49 49 50 51 53 54 56 55 57 59 61 64 65 64 65 66 66 66 64 65 67 67 63 60 53 56 56 59 62 58 60 62 61 54 54
41 43 44 48 50 51 52 53 53 52 53 56 57 58 59 59 59 60 62 63 65 68 70 70 69 66 63 64 67 72 70 67 63 55 55 58 61 64 61 61 65 65 62
47 49 53 55 56 58 61 59 55 53 51 54 57 60 60 61 60 61 62 62 64 66 67 68 71 73 70 71 73 77 73 73 70 61 49 46 51 58 65 62 63 69 66
56 58 58 60 64 65 67 68 61 56 55 59 62 64 64 68 68 74 71 66 69 68 70 73 78 78 80 81 79 79 77 68 64 62 56 47 44 48 57 65 61 57 64

GFSSE_prec_cthk_003.txt.gz
RH
42 39 48 54 57 56 56 59 59 61 67 65 63 64 60 55 55 62 62 62 65 71 65 68 65 63 61 60 65 66 61 55 61 54 53 44 38 47 67 67 66 67 62
40 37 42 47 51 52 54 58 59 62 57 59 62 59 59 57 55 54 56 57 56 63 65 62 55 50 52 51 64 70 68 65 51 45 40 36 28 31 55 75 66 55 56
40 35 41 41 48 47 48 48 51 50 52 54 56 55 56 54 52 51 47 48 52 55 55 55 52 47 48 48 57 67 68 69 68 64 47 35 29 29 35 51 54 54 47
45 43 42 39 40 41 41 42 43 44 47 47 46 44 46 48 48 47 51 51 49 49 48 50 48 46 46 46 53 63 72 72 72 73 58 44 34 30 36 46 44 42 31
39 39 39 37 36 36 36 35 36 36 39 40 38 38 36 39 37 35 37 42 42 41 40 43 43 42 44 46 52 52 57 59 59 73 67 56 35 32 37 45 41 33 24
35 33 29 29 29 28 27 28 30 30 32 32 32 30 27 26 26 21 22 24 26 29 34 39 40 39 42 48 51 57 52 57 55 67 69 66 45 33 38 45 36 28 22
31 29 28 28 27 27 29 32 31 32 30 26 23 19 20 21 21 21 22 23 23 25 29 29 33 36 44 47 55 62 57 48 51 64 72 71 60 42 35 47 42 34 26
32 31 29 28 28 29 26 25 25 24 23 22 21 21 20 20 21 22 21 21 22 24 26 28 26 24 25 29 35 37 38 38 52 59 75 79 67 52 39 49 47 34 31
29 28 29 27 24 24 21 21 22 23 23 25 26 28 23 19 21 23 24 20 17 19 22 26 25 25 28 31 36 38 40 43 47 60 73 74 70 56 57 52 51 37 34
33 35 34 28 27 25 27 29 25 22 22 25 28 21 17 18 18 16 13 12 11 14 15 17 18 20 22 23 27 33 38 51 53 63 78 77 77 77 70 57 56 53 45
34 38 37 36 34 26 22 19 17 16 19 22 22 18 16 18 17 14 12 11 12 12 13 15 16 17 19 24 31 33 38 46 50 58 67 70 67 78 77 76 61 64 60
33 39 32 30 25 20 18 15 17 16 17 19 22 20 19 20 18 17 16 16 15 15 14 15 17 18 21 23 25 32 38 43 40 46 52 62 66 70 72 73 72 65 68
32 33 37 29 27 20 18 16 16 17 20 25 25 25 25 25 24 22 21 21 20 20 20 18 20 21 22 24 24 26 28 31 36 41 43 49 51 60 64 63 68 76 74
29 35 30 26 23 22 21 19 20 26 30 32 32 31 30 29 28 28 29 29 27 27 26 26 26 27 27 27 28 28 26 28 28 33 34 38 42 47 63 67 66 73 76
30 31 30 28 26 25 24 24 26 30 33 34 34 34 33 33 31 30 31 32 32 33 33 32 30 30 30 30 31 30 30 30 31 34 35 37 42 51 54 67 78 76 80
31 32 32 31 30 30 30 29 29 31 34 36 38 39 40 39 36 34 34 35 36 36 37 36 36 35 34 33 33 33 33 31 31 31 33 37 42 50 56 58 67 76 81
31 31 31 31 31 29 30 30 33 35 38 40 41 41 42 42 42 42 41 42 41 41 41 41 40 40 40 40 40 40 39 38 37 36 34 33 39 53 58 57 64 73 78
30 32 33 36 37 37 37 38 40 41 42 44 45 45 46 45 45 44 44 44 44 44 45 45 45 46 47 47 46 46 44 45 44 43 42 40 38 37 43 51 54 64 76
35 38 40 40 41 40 40 41 42 44 44 45 46 46 47 47 47 48 49 50 49 50 51 51 51 52 52 51 51 51 52 52 51 50 48 46 44 43 43 38 39 59 62
39 42 44 44 45 46 46 47 47 47 45 45 46 46 47 48 49 50 52 52 52 53 54 54 55 55 56 56 56 57 57 57 57 54 51 51 50 50 48 47 46 41 59
41 43 44 45 48 50 50 49 47 49 48 46 45 46 49 51 52 52 52 53 54 53 54 55 57 59 59 59 58 58 58 58 57 57 54 52 51 50 51 52 52 51 44
44 44 45 49 52 55 54 51 52 52 51 50 50 50 51 53 54 55 56 56 56 56 55 56 56 58 60 59 58 55 54 55 56 57 55 52 49 51 53 51 54 57 57
47 50 52 53 53 54 55 58 58 56 55 52 51 48 50 52 52 53 56 57 59 60 59 58 56 53 55 56 56 55 54 54 53 54 53 53 51 48 47 50 51 54 61
52 51 51 53 56 55 56 56 56 56 55 54 52 49 49 54 56 57 56 57 60 63 68 68 66 61 62 60 60 60 55 55 55 48 51 52 56 53 48 46 48 52 60
52 55 57 59 60 60 62 62 61 59 54 49 47 45 46 49 53 55 58 58 63 67 68 78 75 69 69 67 72 75 66 62 64 58 45 46 52 55 53 49 48 50 57
59 60 61 63 62 62 64 62 59 57 52 48 47 48 49 50 51 54 59 61 63 69 72 83 78 69 70 74 78 76 74 73 70 68 54 45 48 50 52 48 48 45 49

GFSSE_prec_cthk_006.txt.gz
RH
42 46 51 54 51 52 67 66 65 64 63 63 61 65 66 65 64 63 65 60 57 56 58 59 58 56 57 54 50 50 56 57 60 60 67 59 54 52 50 63 63 70 67
38 38 44 47 46 54 59 67 68 65 59 60 62 60 61 61 55 54 52 52 53 54 56 58 56 53 49 50 49 52 60 64 65 65 57 51 47 43 42 44 64 62 64
43 40 43 48 51 51 57 58 55 54 53 53 56 55 55 56 53 54 53 48 44 46 53 59 58 52 51 49 49 52 62 66 68 68 69 65 50 37 34 31 53 66 61
43 41 40 39 38 38 40 42 40 37 43 42 44 43 45 47 46 45 47 42 40 43 49 52 54 49 52 51 49 52 61 67 68 69 72 76 69 45 36 33 44 57 55
36 36 36 34 35 34 33 33 31 31 34 35 34 35 34 35 38 42 42 41 33 30 35 39 43 46 50 47 46 54 59 66 57 57 68 70 77 62 42 39 41 46 45
29 31 32 30 29 29 29 28 28 27 27 27 28 24 22 19 21 23 22 19 17 20 25 31 37 42 45 44 45 54 59 63 52 63 67 71 76 66 49 48 52 49 46
26 31 30 31 30 32 32 30 26 24 22 20 22 21 20 20 19 19 19 21 22 23 24 25 28 35 41 40 43 48 55 59 59 58 58 64 71 72 62 49 54 58 48
28 28 29 28 29 25 23 23 22 20 22 24 25 27 26 22 21 20 20 21 20 19 21 24 28 28 27 31 35 43 50 55 61 55 51 65 77 84 76 56 55 64 56
33 32 32 33 33 27 25 25 23 20 17 20 23 24 19 18 18 18 17 14 11 11 14 17 19 21 25 28 31 34 39 42 42 48 50 63 82 90 86 63 53 64 58
28 35 38 37 36 32 24 19 14 11 14 17 20 19 16 16 17 16 13 10 9 10 11 12 13 12 13 14 17 22 30 38 46 57 59 55 72 87 82 79 64 64 60
29 36 32 30 23 19 16 14 12 11 13 16 20 20 21 23 24 21 18 15 14 14 13 12 12 14 15 16 18 22 27 31 38 46 55 59 70 86 84 76 74 69 66
24 26 26 30 25 20 18 16 13 13 16 21 23 26 26 26 26 25 23 23 21 20 18 17 15 16 17 18 20 22 25 29 35 40 43 51 62 77 78 74 81 80 84
26 28 32 33 26 23 21 21 20 19 24 28 31 30 30 29 29 28 27 27 26 25 24 24 22 21 22 21 21 22 23 23 24 31 40 40 49 64 70 69 75 80 83
28 32 37 31 27 25 25 26 27 27 30 32 35 34 34 34 34 33 33 32 32 30 30 29 28 27 26 27 26 26 26 25 24 24 25 27 37 43 51 62 69 70 77
34 35 34 30 29 29 29 28 28 29 32 34 37 39 40 41 42 42 40 39 39 38 38 37 36 34 31 29 28 28 28 27 27 27 27 28 30 33 38 43 50 51 64
31 32 32 31 32 33 34 34 34 36 38 40 41 43 45 46 44 43 43 42 41 41 42 42 42 41 39 37 36 35 34 33 32 32 31 29 27 30 33 35 41 49 52
33 38 38 39 40 41 39 37 38 39 39 40 41 42 44 45 45 44 43 42 42 42 42 43 44 44 43 43 44 43 42 41 40 37 35 34 33 32 30 31 44 54 62
36 40 41 42 43 43 42 43 44 45 44 43 43 42 42 42 43 43 43 43 45 45 46 46 47 48 48 48 49 49 48 47 46 45 43 41 39 38 38 37 36 44 61
41 45 45 45 44 44 46 46 46 45 45 45 43 43 43 42 43 44 44 45 46 46 47 47 48 49 50 51 51 51 51 52 52 51 49 47 45 44 45 44 43 42 44
40 45 48 49 48 48 50 50 49 50 50 49 48 46 45 45 46 45 45 46 48 48 48 48 49 50 51 52 53 54 55 56 56 56 56 54 53 50 47 47 47 46 45
43 49 51 50 51 52 54 54 53 53 50 50 50 48 49 48 48 49 48 47 49 50 52 51 50 51 52 53 54 54 55 55 56 56 55 54 53 52 51 47 47 48 50
48 53 54 53 58 56 55 55 56 56 56 55 56 53 49 48 46 47 49 49 49 50 52 52 54 55 55 56 54 53 52 52 53 52 52 51 50 49 47 48 46 43 45
52 56 58 57 56 54 56 59 58 57 57 57 58 56 53 48 46 46 48 50 51 52 51 52 53 54 55 55 59 60 55 50 48 47 48 48 49 47 44 43 45 43 39
53 55 56 56 55 55 55 55 54 54 55 55 55 53 51 48 46 47 49 51 55 57 55 55 55 61 60 61 66 63 60 55 52 49 47 44 46 47 47 43 43 43 41
53 55 57 58 57 55 56 57 56 56 56 54 51 46 46 46 48 47 48 48 47 50 52 55 60 63 64 65 72 70 70 62 57 57 53 50 46 45 44 42 41 44 45
59 61 61 61 60 59 59 61 62 59 53 49 47 44 42 39 37 36 36 38 39 43 46 54 61 63 67 67 68 71 72 69 69 70 69 63 59 53 48 44 42 41 44

GFSSE_prec_cthk_009.txt.gz
RH
47 54 58 57 58 59 60 64 63 60 60 66 65 62 57 58 59 59 61 65 63 62 67 65 59 58 58 57 55 53 55 54 56 62 72 69 62 61 60 61 63 61 61
38 44 50 52 53 55 64 65 67 60 58 59 55 51 51 49 51 56 54 56 59 58 57 56 57 58 58 57 52 52 52 55 60 63 64 62 60 51 45 48 56 65 64
43 41 43 45 47 53 54 54 52 48 47 46 46 44 45 47 51 51 49 52 54 51 48 47 50 56 62 55 53 52 49 55 63 66 69 72 69 66 56 39 42 53 63
39 37 34 33 34 36 35 36 36 38 40 40 38 37 37 37 39 39 45 43 46 45 43 41 38 41 43 46 51 54 50 51 62 69 77 76 76 73 70 52 38 40 57
31 28 29 30 32 32 31 31 31 32 33 32 27 26 22 22 23 27 32 34 34 27 23 22 24 28 37 41 46 49 50 54 61 70 66 72 72 73 76 70 41 44 45
24 23 24 27 27 30 31 31 31 30 27 23 22 20 21 22 22 23 23 20 19 19 21 22 25 28 31 37 40 42 43 45 55 67 60 68 74 77 75 77 54 46 51
24 23 24 26 27 28 27 27 25 21 20 22 21 22 24 24 22 23 25 24 24 24 22 23 24 25 28 32 35 38 40 44 50 56 59 58 63 74 83 86 64 56 57
25 27 28 28 29 27 25 22 21 21 21 17 18 20 18 14 15 17 19 21 19 15 14 18 23 25 24 24 27 31 36 44 49 55 60 61 57 63 79 91 80 66 62
31 30 29 30 29 28 27 24 20 14 12 14 18 19 16 15 15 17 17 14 9 9 10 12 15 17 17 21 24 27 28 32 37 40 42 47 54 49 77 92 86 72 73
32 31 34 31 27 21 17 15 12 9 11 14 17 18 18 19 21 24 21 17 14 13 12 11 12 13 13 14 15 18 21 26 33 39 43 49 55 53 67 96 88 81 70
26 36 30 27 24 19 16 14 11 11 13 16 19 22 23 23 24 25 24 23 22 20 18 17 16 14 15 17 18 19 22 26 27 31 34 39 46 55 60 89 96 89 77
28 26 26 29 25 21 20 20 18 18 20 24 27 28 29 29 29 29 28 27 27 27 26 24 23 21 18 18 18 19 21 23 26 30 34 37 38 41 52 71 82 90 86
29 30 32 35 27 25 27 28 27 26 26 27 29 31 32 32 32 33 33 33 33 34 34 33 32 30 27 25 23 22 21 21 21 21 21 24 33 38 41 55 75 74 79
32 35 36 36 30 29 28 28 29 30 32 34 36 37 39 40 41 41 41 41 39 38 38 38 37 38 37 35 31 27 25 24 24 25 25 26 26 28 33 43 60 67 70
33 35 35 36 32 34 34 33 33 35 36 37 37 39 40 42 42 43 43 42 42 41 41 41 41 41 41 40 38 35 33 31 29 28 28 28 27 27 27 31 35 47 60
36 40 41 42 37 37 37 36 37 38 39 40 40 40 39 40 40 40 41 40 40 40 40 40 41 42 42 42 42 41 41 40 38 36 34 33 32 30 30 28 31 35 41
38 42 42 42 38 38 39 40 41 40 39 40 40 40 39 39 40 39 39 39 40 40 41 42 42 43 43 43 43 44 45 45 44 43 42 40 39 36 35 33 32 29 34
39 43 47 46 46 45 43 45 46 44 44 44 44 43 43 43 41 41 42 42 43 43 43 43 43 43 44 45 46 47 47 48 48 48 47 46 45 43 41 39 38 36 34
40 43 49 51 49 47 47 48 49 48 49 50 51 50 49 49 46 46 45 46 47 46 45 45 45 44 44 44 45 47 48 48 48 49 50 50 49 48 48 46 43 42 41
39 44 49 50 49 50 49 51 52 51 52 52 51 52 52 51 50 47 43 41 44 46 46 46 46 46 45 44 44 45 47 49 50 52 52 52 52 51 51 49 49 47 44
39 44 49 51 52 52 54 52 53 53 53 52 51 51 52 51 50 48 44 41 41 42 45 47 47 48 47 50 51 51 47 48 49 50 51 52 53 52 52 52 50 49 50
46 49 51 54 56 55 58 57 55 53 53 53 53 52 51 49 46 43 41 40 41 42 45 48 51 50 50 50 49 52 53 53 52 51 51 51 51 50 50 49 49 47 47
52 55 57 57 56 56 56 57 57 56 56 58 58 56 52 50 47 45 44 44 44 43 43 46 49 51 53 53 54 52 52 51 56 58 56 54 52 51 50 46 46 46 44
56 58 60 61 60 60 62 63 62 59 57 56 54 52 48 48 48 46 41 37 37 36 36 39 43 45 53 57 54 56 53 55 52 54 63 64 61 59 54 51 45 44 42
57 60 60 64 65 68 69 68 67 66 63 60 56 50 49 47 43 37 34 33 31 30 28 28 30 32 39 49 54 56 58 60 58 56 56 64 68 64 63 62 57 51 45
61 64 67 69 70 70 70 69 66 65 64 60 60 56 53 46 41 41 38 33 29 28 29 31 33 37 40 43 49 54 62 64 60 56 66 58 62 62 66 66 62 59 52

GFSSE_prec_cthk_015.txt.gz
RH
53 50 52 58 57 54 52 52 53 50 51 53 55 53 51 52 51 53 55 60 61 58 55 55 54 53 51 51 51 56 53 53 54 55 53 50 53 61 62 62 64 73 76
50 50 52 54 50 51 50 50 50 52 48 46 46 47 50 50 51 53 50 53 51 51 49 48 46 48 50 49 49 52 59 62 59 55 51 51 55 60 54 58 56 69 89
54 50 47 44 43 42 49 48 44 38 38 39 41 44 44 42 39 38 40 44 46 46 45 46 45 45 43 38 37 38 44 53 54 57 54 57 72 72 66 64 60 60 61
49 51 39 36 35 35 31 31 31 33 33 34 33 31 28 27 28 28 29 31 33 36 38 35 31 25 22 22 23 27 35 41 48 54 55 61 70 80 70 68 69 66 66
37 37 28 23 21 23 24 25 27 27 26 26 24 22 22 23 23 24 24 23 23 21 20 18 18 19 22 25 28 30 33 40 45 48 55 67 71 63 71 71 72 75 71
31 25 21 21 22 23 23 24 24 23 24 23 20 18 18 19 19 18 18 18 19 20 20 20 20 22 23 24 26 29 32 36 40 46 53 53 65 60 62 64 71 70 73
27 22 20 20 22 23 23 22 20 19 17 17 15 16 18 19 17 16 16 18 18 16 15 14 14 15 18 22 24 24 24 29 34 45 57 66 64 61 64 65 62 59 64
26 25 23 24 21 19 19 19 17 14 14 14 16 18 19 18 16 17 19 21 19 13 10 10 10 11 12 13 12 16 23 26 28 44 48 70 60 59 59 63 65 68 67
29 33 32 25 20 17 15 11 10 9 10 13 16 18 19 19 19 21 24 24 22 20 19 17 15 13 12 12 13 14 15 16 18 35 37 40 40 44 47 47 55 64 67
31 34 31 29 24 24 17 11 10 8 11 14 16 19 22 23 26 26 27 27 26 25 25 25 25 25 23 19 16 15 15 18 25 30 41 36 35 34 38 39 43 52 62
35 34 37 30 25 25 26 19 16 16 17 21 24 26 28 41 40 42 36 31 30 29 30 30 31 30 30 30 31 29 24 29 28 29 38 30 28 30 32 35 39 44 52
37 37 35 29 28 25 27 29 34 32 37 36 38 40 48 46 46 43 45 43 42 41 40 42 41 39 41 45 46 42 41 41 32 34 34 27 22 21 29 35 37 37 40
41 39 38 30 29 31 36 37 44 47 46 50 48 47 49 50 54 52 54 54 52 49 51 50 51 50 50 46 45 44 44 41 43 42 42 33 25 23 25 26 35 41 40
48 48 42 39 31 30 41 47 48 50 50 49 52 47 49 50 50 49 48 47 46 48 47 48 48 49 48 47 43 43 42 41 42 44 42 39 32 29 27 28 30 31 35
50 54 50 49 44 43 41 46 47 48 54 52 53 52 48 47 47 46 47 48 45 45 47 46 46 46 47 45 46 44 45 44 43 43 44 41 39 36 35 33 31 31 33
58 58 57 61 55 50 45 48 50 53 57 57 56 52 48 50 51 48 49 51 49 47 46 45 44 42 41 41 41 42 41 42 43 45 46 45 42 40 39 38 37 35 34
57 61 66 62 59 50 48 51 53 55 51 56 57 53 53 52 51 50 50 52 51 50 46 45 44 43 42 42 40 39 38 38 37 38 40 42 42 44 43 42 41 40 39
53 56 61 60 56 54 55 54 57 59 58 60 57 57 54 52 50 49 49 48 48 45 48 47 44 43 45 46 44 41 38 37 37 36 36 36 39 41 42 43 44 44 43
47 48 53 60 58 60 58 58 60 61 61 65 62 62 62 60 59 57 55 54 51 50 48 49 48 47 47 45 47 46 42 41 40 40 39 38 37 37 40 40 42 42 44
40 45 52 59 62 61 60 60 62 63 64 65 67 67 67 65 63 61 61 60 59 57 55 53 51 48 47 45 44 46 43 41 40 41 42 40 39 40 38 42 38 38 40
41 49 56 56 60 60 62 64 65 67 70 70 72 69 67 65 63 61 60 59 57 54 50 48 43 43 44 46 48 46 44 44 45 43 39 40 41 42 40 41 44 43 40
46 49 52 56 58 62 65 67 68 67 70 71 71 70 68 64 65 63 63 62 56 52 48 43 41 38 39 42 44 46 48 45 46 50 48 41 38 39 42 43 45 43 43
51 54 57 61 63 64 64 68 69 70 71 72 70 70 71 68 64 61 59 55 51 48 43 43 43 43 42 40 46 52 56 51 52 51 63 65 61 50 40 43 43 41 42
56 59 62 61 60 62 64 67 68 68 71 77 75 73 69 62 57 55 52 50 48 47 47 49 50 48 50 46 48 53 54 56 60 59 53 66 69 67 62 52 52 47 43
59 60 60 63 66 66 67 67 70 74 77 77 70 59 57 56 55 52 47 45 43 44 46 45 47 52 51 49 48 51 52 48 53 55 52 54 71 72 75 72 69 58 57
61 64 64 66 67 69 69 69 66 63 60 59 60 60 58 52 43 42 43 46 48 55 56 56 50 45 43 44 48 49 51 50 50 51 52 53 58 65 80 87 79 75 72

GFSSE_prec_cthk_021.txt.gz
RH
58 53 48 45 46 46 46 42 41 37 39 39 39 37 37 39 39 38 38 37 35 35 37 37 37 36 38 42 42 44 47 50 52 56 67 62 58 59 53 47 57 61 71
58 55 46 46 45 43 39 38 40 38 37 33 34 35 34 33 31 29 28 28 29 30 32 35 36 35 35 34 33 29 24 22 25 30 39 49 57 63 71 66 60 65 65
47 46 45 44 42 40 39 39 35 31 29 30 29 26 24 21 19 18 18 19 19 18 18 18 19 19 18 18 20 19 18 18 20 25 35 44 52 68 79 83 70 64 66
43 42 41 40 41 38 33 27 22 21 22 22 20 17 16 15 15 16 16 15 13 12 13 13 14 13 13 13 13 14 17 20 23 27 34 42 50 62 76 88 84 74 68
37 38 36 35 30 23 19 18 19 20 20 19 17 15 14 13 14 14 12 11 12 14 12 10 11 11 11 13 14 16 17 19 22 27 32 40 47 49 57 66 74 77 75
30 26 24 20 18 16 18 19 19 18 17 15 14 13 12 14 16 13 12 14 16 16 14 13 8 7 7 7 7 8 9 15 18 23 33 38 42 41 53 59 77 77 67
19 18 17 16 17 18 16 15 14 12 11 12 13 13 14 15 13 14 18 20 21 20 19 18 18 18 16 13 10 8 9 9 13 27 26 31 37 41 51 62 82 82 69
16 17 17 19 18 15 12 9 7 7 8 10 11 13 13 15 18 21 21 23 23 23 22 23 22 22 21 21 20 19 16 12 12 23 23 23 25 27 33 43 53 61 57
17 19 21 20 17 12 8 7 7 8 9 10 11 15 22 26 28 29 29 29 30 30 30 30 29 30 29 28 27 27 26 24 24 26 26 28 26 23 22 23 28 35 45
22 25 26 23 18 16 13 11 11 12 15 20 23 27 31 33 35 36 40 39 39 36 36 36 36 35 34 35 36 36 35 35 36 34 32 32 34 32 25 20 19 21 27
27 30 28 24 17 21 24 28 25 26 28 30 31 35 37 37 38 38 38 38 37 36 36 36 35 35 35 36 35 35 35 37 38 40 40 38 39 36 30 26 19 20 23
31 31 30 29 21 27 28 34 36 38 38 37 39 37 40 41 42 42 41 40 39 39 39 37 36 35 35 35 35 35 33 33 33 36 35 37 40 41 40 34 25 24 28
34 35 35 33 25 32 32 35 39 40 44 45 46 46 41 44 45 43 41 40 39 39 39 39 38 36 35 35 35 34 33 32 32 33 34 34 35 37 37 37 33 32 30
42 43 40 37 24 30 37 40 41 43 46 49 48 45 43 45 45 44 45 42 41 41 39 39 38 37 34 33 33 34 31 30 29 30 30 31 33 35 35 35 34 33 33
48 42 40 41 40 37 38 41 44 46 47 50 47 47 46 47 47 45 44 43 44 44 44 42 40 38 37 36 35 35 33 32 30 29 27 25 26 27 30 32 33 34 35
47 47 57 73 77 58 58 43 44 45 49 47 48 48 49 50 50 49 49 49 49 48 47 45 43 40 39 40 38 37 37 36 35 34 33 31 28 26 26 27 27 28 31
50 55 69 59 76 70 71 57 50 52 53 52 49 52 53 56 57 55 55 53 52 50 48 46 43 41 42 40 41 40 38 36 36 36 36 37 32 30 29 27 26 26 26
51 48 66 66 74 78 72 70 58 58 58 54 58 61 61 58 57 60 58 56 53 53 51 45 43 41 42 43 41 40 38 37 37 39 40 41 41 37 33 31 29 28 27
45 45 49 52 62 65 67 63 66 63 62 63 66 66 66 65 65 63 60 60 61 59 55 49 46 44 43 42 40 36 31 30 28 31 38 40 39 40 38 37 33 31 29
51 47 47 54 63 60 58 60 63 63 66 68 66 64 64 65 63 64 63 66 63 56 52 46 43 42 40 36 31 29 29 29 30 30 28 30 37 41 39 36 36 36 36
60 55 48 45 51 54 57 62 64 68 69 68 67 66 63 67 67 63 62 57 52 48 46 44 40 36 34 33 33 31 31 33 33 33 37 40 43 47 47 43 42 42 42
55 53 54 55 57 56 59 62 63 62 61 61 62 64 67 67 66 65 57 53 50 48 47 42 41 39 35 37 41 41 38 34 36 38 40 40 44 50 54 58 67 65 61
51 53 52 55 58 60 61 62 61 57 57 60 64 68 68 66 61 57 56 53 53 51 46 46 46 43 44 47 54 57 55 54 50 44 41 42 42 43 53 59 66 70 72
52 54 54 55 60 63 64 61 58 57 59 62 63 61 58 58 58 59 57 55 49 44 42 42 46 48 50 51 55 56 60 62 61 50 47 45 51 54 52 57 65 72 78
51 54 57 62 64 61 56 55 54 55 55 55 55 57 59 58 56 52 46 42 41 43 45 44 47 50 55 56 51 54 54 55 58 54 43 39 38 44 53 56 53 60 71
52 57 62 61 61 62 62 61 61 59 58 57 57 56 52 49 45 43 42 41 38 36 35 34 37 40 38 48 53 54 56 52 48 52 47 37 37 37 45 50 59 64 61

GFSSE_prec_cthk_024.txt.gz
RH
71 63 54 51 50 45 45 43 38 36 35 36 35 33 31 30 31 31 31 30 29 29 29 30 31 33 32 33 36 37 39 35 35 39 40 44 47 49 54 53 54 58 65
64 57 51 49 46 43 41 36 36 35 34 28 28 28 25 23 20 18 18 18 18 17 16 15 17 18 19 19 18 20 20 21 22 26 30 31 36 41 49 55 57 61 62
56 49 46 46 44 40 37 32 30 27 23 22 20 18 16 15 14 15 15 15 13 11 10 11 12 12 12 11 11 12 15 17 20 23 29 33 32 45 53 59 58 56 60
50 45 45 43 39 38 32 25 19 17 17 17 17 15 14 12 11 12 11 8 9 10 11 10 9 10 10 11 12 13 16 19 23 27 29 31 34 45 49 48 58 74 68
46 41 41 39 35 27 18 16 17 18 18 17 15 14 11 10 12 9 9 11 13 13 13 12 11 8 7 7 7 8 10 16 18 25 30 34 37 42 45 47 49 63 74
40 37 34 28 21 16 16 17 17 15 15 14 12 11 11 12 10 10 13 16 17 17 17 17 17 17 17 15 12 10 9 9 16 21 28 30 32 37 45 70 69 66 71
29 23 21 17 16 17 16 14 12 8 9 10 11 11 10 10 13 16 18 20 20 20 21 21 22 22 22 21 21 20 18 16 15 21 24 27 29 31 38 55 55 69 80
17 18 18 18 17 15 10 7 6 7 8 9 9 9 12 17 21 21 22 24 25 28 28 28 29 30 30 29 29 29 27 25 26 29 28 27 26 27 26 25 31 45 53
18 18 20 20 18 11 7 6 8 9 11 12 15 20 22 24 26 29 30 31 30 30 30 31 30 30 30 31 33 34 35 36 37 37 36 37 34 34 32 27 24 21 24
20 23 23 20 15 11 10 11 13 15 17 21 24 29 30 31 32 32 31 32 32 32 31 30 30 30 30 31 32 32 33 36 38 40 40 40 41 42 39 33 29 20 21
25 26 24 18 17 20 25 25 26 28 30 29 32 35 36 37 38 36 35 35 36 35 34 33 33 33 33 32 32 32 32 33 36 37 37 39 39 41 41 40 36 28 23
24 25 25 23 19 25 30 33 35 35 35 37 38 38 36 38 40 41 39 37 36 36 37 36 35 34 34 33 32 31 31 32 32 32 33 35 37 38 41 41 40 37 29
33 34 35 34 25 26 32 38 39 41 39 40 39 41 39 40 41 41 40 39 38 38 39 38 38 36 35 35 35 34 32 30 30 31 30 30 33 35 37 38 38 37 34
37 42 44 37 29 29 35 42 45 43 43 44 42 42 39 40 42 43 43 45 44 43 42 42 41 41 39 36 36 37 36 33 33 30 30 30 29 29 30 32 34 35 35
41 45 48 48 54 48 51 50 51 50 48 49 49 48 43 42 45 46 49 49 49 48 46 45 44 42 39 36 37 38 36 36 35 35 34 31 30 29 28 26 27 29 32
52 54 53 71 56 59 58 62 59 57 59 56 54 52 48 49 51 49 51 53 52 49 47 46 46 44 39 35 34 35 36 36 37 38 38 37 35 34 32 31 28 25 25
52 56 47 55 69 58 67 62 63 63 60 57 55 54 55 55 55 56 56 57 56 53 50 51 52 50 45 39 36 35 36 37 35 35 36 38 40 39 39 36 32 29 28
47 52 58 55 57 59 63 61 61 63 62 60 63 62 63 64 61 58 56 58 61 58 56 54 54 48 43 38 34 33 33 33 33 30 29 30 36 38 38 37 37 34 31
52 60 69 73 70 71 63 61 59 61 66 68 70 71 72 70 68 65 63 65 66 62 59 54 48 42 38 35 32 30 28 26 26 26 27 27 26 30 36 40 41 40 38
61 67 74 74 76 71 61 62 66 72 70 68 70 70 69 66 66 69 68 71 66 62 53 48 43 40 36 33 30 27 26 24 23 24 26 30 35 33 34 37 38 41 40
72 72 76 79 70 67 67 65 71 71 71 73 72 68 67 68 71 72 74 71 61 55 50 47 45 40 39 37 34 33 32 31 33 32 33 35 34 38 42 40 41 42 41
70 70 66 66 66 66 63 66 69 71 73 72 69 69 70 73 74 70 63 60 57 54 53 49 44 38 37 39 41 38 37 32 34 39 43 48 45 44 45 48 52 49 50
59 57 58 57 58 59 62 63 66 68 65 63 65 67 68 65 62 61 59 57 53 46 39 36 36 37 41 42 42 42 42 40 36 32 33 40 45 50 52 52 52 52 55
50 50 52 56 57 57 59 60 60 57 57 58 59 60 60 59 56 53 47 39 36 33 33 34 38 35 38 35 36 37 41 43 45 35 34 32 34 41 46 51 51 54 58
43 45 49 50 50 50 49 51 54 56 57 55 56 56 57 55 50 44 38 34 33 30 28 29 29 28 34 39 41 41 41 42 44 47 38 37 30 31 36 39 47 53 57
51 50 49 50 54 56 56 56 54 54 56 58 59 60 54 52 45 36 32 32 29 24 27 28 30 33 34 35 36 40 42 44 46 50 46 38 41 35 35 36 37 43 54

GFSSE_prec_cthk_030.txt.gz
RH
73 70 63 58 59 54 46 43 41 36 33 33 31 28 26 23 20 18 16 15 14 14 12 11 11 12 14 14 14 14 13 13 14 16 18 16 16 21 28 31 32 39 52
73 68 60 54 54 48 42 39 36 32 32 28 23 20 18 16 15 12 12 11 9 9 9 10 11 11 11 11 12 12 12 12 12 14 14 17 21 25 28 32 37 38 47
75 66 60 53 51 43 40 38 33 27 22 18 18 17 16 13 10 9 7 9 10 11 11 12 12 11 11 9 8 9 12 14 14 16 16 19 22 28 33 37 42 46 43
73 62 56 52 49 40 36 32 22 19 17 17 16 15 12 10 7 8 10 13 14 15 15 16 16 16 16 16 16 15 13 13 14 15 18 22 25 30 32 34 39 41 47
67 66 58 51 42 36 29 19 17 17 15 14 12 11 10 7 8 12 15 17 18 19 19 20 21 21 21 21 22 21 20 20 21 22 22 24 27 29 36 37 37 40 50
63 60 52 45 33 25 17 17 16 12 8 9 9 9 8 11 15 18 20 21 22 23 23 24 25 26 25 25 26 27 25 24 25 26 30 32 31 31 32 35 43 48 54
55 51 45 30 22 17 16 14 9 6 7 7 8 12 17 19 21 23 25 25 25 27 28 27 27 28 29 29 29 29 29 28 28 32 34 36 37 34 31 40 44 49 46
47 38 27 21 17 16 14 7 6 8 10 13 18 22 23 25 26 28 28 28 28 28 28 28 28 28 27 27 28 28 29 32 33 35 37 37 37 35 39 39 42 37 33
30 20 18 19 16 14 8 6 10 12 17 20 24 27 29 30 30 30 31 31 32 34 34 34 33 32 31 31 30 29 29 30 31 33 37 40 39 37 41 43 43 41 36
18 20 20 17 13 9 7 11 15 18 21 28 31 32 32 30 30 31 32 35 36 38 39 42 41 38 37 35 33 33 33 31 30 30 31 32 35 37 37 37 43 43 38
20 21 19 14 11 10 14 18 22 25 30 33 33 33 34 34 34 34 35 37 38 40 38 40 43 43 42 40 39 38 38 36 36 34 32 29 30 32 34 36 36 37 39
21 19 16 16 16 20 22 24 29 31 35 37 41 44 46 44 41 41 40 40 40 40 40 41 43 43 43 44 45 44 42 40 38 38 37 34 31 29 30 31 32 34 34
28 28 23 19 23 26 31 33 36 38 44 48 51 51 48 46 45 42 43 43 44 45 44 45 46 47 48 46 45 45 44 43 39 36 35 34 35 34 32 30 30 31 31
33 36 36 35 33 40 41 44 48 51 52 52 54 50 48 45 48 47 46 46 48 49 49 48 47 48 49 50 48 45 43 43 41 37 35 33 32 34 35 32 31 30 29
39 44 45 45 46 50 52 54 56 60 57 54 52 53 50 48 51 51 54 54 56 55 55 52 50 50 51 54 54 47 42 38 37 36 35 35 35 35 34 34 33 33 33
47 51 51 50 51 53 54 59 64 64 62 59 58 57 55 54 54 55 57 60 62 59 57 55 54 55 52 51 52 48 41 36 34 32 31 31 33 35 34 34 33 33 34
50 52 60 61 60 63 67 68 73 74 71 66 62 61 60 61 61 61 63 65 65 62 59 58 58 56 53 51 46 41 36 33 31 30 29 27 26 25 24 24 26 29 33
50 55 67 72 74 80 86 87 85 76 78 77 69 65 66 68 66 66 69 68 66 63 61 59 53 49 48 44 39 36 34 31 28 26 26 27 28 28 26 26 25 25 24
51 59 69 80 88 94 90 89 89 84 78 69 68 70 73 72 70 71 71 67 62 59 55 51 49 47 43 38 34 30 27 26 24 24 25 26 28 29 31 32 31 29 28
56 62 74 85 93 89 92 91 78 72 69 70 72 73 72 71 70 71 66 62 57 54 52 47 43 39 32 27 25 23 21 20 20 22 22 21 23 25 26 30 31 33 34
71 78 86 90 91 91 84 79 73 69 68 68 69 69 68 66 64 61 56 53 51 47 41 37 33 30 27 24 21 19 18 19 19 15 19 19 16 16 17 17 20 25 31
82 83 89 84 73 70 65 61 61 62 61 63 63 62 62 63 60 57 55 50 45 40 37 34 30 26 22 19 19 18 18 17 17 17 15 17 17 18 17 16 16 16 17
78 72 67 65 62 60 57 55 56 57 58 60 60 60 59 57 54 51 47 43 41 37 29 23 20 18 17 16 17 20 25 25 27 25 19 19 19 19 19 20 21 20 18
61 58 59 59 60 59 58 60 61 60 63 63 61 60 58 54 52 48 44 38 31 27 26 24 22 21 22 24 23 25 28 31 33 31 32 34 29 22 23 25 26 25 25
63 64 67 67 69 67 69 69 64 63 63 61 59 59 55 50 46 38 29 26 25 27 29 28 27 27 26 27 28 29 28 30 33 38 34 37 42 39 35 36 36 33 33
71 80 81 77 73 73 72 68 64 63 59 57 55 50 48 44 36 26 25 25 26 28 32 34 33 33 34 33 36 39 39 38 38 44 46 46 46 38 45 49 60 55 47

GFSSE_prec_cthk_033.txt.gz
RH
76 72 70 68 64 57 49 46 41 37 33 33 31 29 25 21 19 15 13 12 11 10 10 11 12 12 12 11 11 11 11 11 10 11 13 14 15 19 23 28 29 32 39
79 75 70 69 61 52 50 45 38 35 32 29 23 19 17 16 13 11 9 9 10 11 11 11 11 11 11 11 11 10 10 11 11 12 13 15 17 19 25 30 35 35 34
81 77 71 69 57 51 48 42 36 30 24 19 17 17 15 13 8 8 11 13 14 14 14 14 15 15 16 15 15 15 15 13 13 14 16 19 23 25 30 31 34 39 40
80 73 65 65 57 51 44 37 26 20 18 18 16 14 13 7 9 12 14 16 17 17 18 19 19 19 20 20 20 20 20 20 21 21 23 27 30 30 34 34 34 35 38
75 64 63 62 54 45 37 23 20 18 15 13 12 11 8 10 14 16 19 19 21 21 22 21 21 23 23 23 23 24 22 22 22 25 28 31 33 35 38 38 36 38 41
68 63 57 54 45 35 22 18 17 10 8 9 8 9 13 16 18 20 22 24 25 24 24 23 24 26 25 25 26 25 27 26 24 26 30 34 34 35 35 38 41 42 47
64 59 54 45 30 23 18 16 8 7 8 10 15 19 21 23 24 25 26 27 26 26 26 26 26 26 26 25 25 25 25 26 29 31 32 34 36 35 32 31 41 44 48
59 53 43 28 22 19 17 9 8 9 13 18 22 25 27 27 27 28 29 28 28 29 31 32 31 30 30 28 27 26 26 25 26 29 32 34 35 35 35 38 39 40 43
52 39 26 20 20 17 12 8 11 15 20 25 28 30 29 30 31 31 30 31 32 32 33 32 33 33 34 34 33 32 31 30 29 27 27 28 31 34 35 36 38 39 38
30 21 20 20 16 12 8 12 17 21 28 31 33 33 33 31 32 35 36 37 39 37 35 35 36 36 35 36 37 38 37 37 36 34 32 30 28 27 29 32 34 37 38
19 20 20 17 12 10 14 19 23 28 33 34 36 37 40 43 45 43 43 43 43 43 41 41 40 39 40 41 40 40 40 40 41 40 38 35 33 31 27 26 29 32 34
20 21 18 14 14 16 21 26 30 34 37 41 45 45 46 48 45 44 46 46 44 42 43 44 45 43 42 42 44 44 44 41 38 38 37 34 33 31 32 29 25 25 28
24 22 18 18 22 27 30 35 36 41 51 53 49 48 52 50 46 46 46 45 47 48 46 46 48 47 45 45 45 45 46 45 38 35 35 35 32 29 29 29 31 29 27
34 32 24 28 33 36 40 44 49 51 56 56 57 56 52 50 49 48 49 48 50 50 51 53 52 51 50 49 48 46 44 43 40 36 33 34 34 32 31 31 30 29 28
42 47 42 39 48 50 50 55 60 61 61 63 66 63 58 53 53 53 54 56 57 58 59 58 56 55 54 53 51 46 44 42 38 35 33 32 31 31 32 33 33 31 30
56 57 55 52 50 54 61 63 66 69 72 72 72 76 75 67 62 59 60 61 62 63 63 61 60 56 54 53 50 46 42 38 33 30 27 25 25 25 24 25 27 29 29
57 63 59 57 59 62 72 74 77 85 80 82 76 73 70 68 66 66 66 66 66 64 62 60 58 58 54 48 41 37 34 31 28 25 23 22 22 22 22 22 22 23 24
60 61 68 73 81 82 84 85 91 86 83 83 73 66 70 71 72 72 70 67 63 63 59 56 51 47 42 39 34 31 28 25 22 21 20 20 20 21 21 21 22 23 23
58 62 66 75 82 88 93 90 91 83 84 76 71 73 73 72 71 69 65 64 62 56 52 48 42 37 32 30 27 25 22 19 17 15 16 18 17 16 17 17 18 20 22
60 64 70 76 87 94 85 89 79 77 73 74 74 72 67 64 63 63 61 59 54 50 44 40 36 32 29 25 20 16 14 13 13 14 14 13 14 14 12 11 11 11 13
62 70 80 85 94 93 84 69 67 71 66 62 59 59 58 58 59 57 54 49 46 43 41 37 33 27 20 17 15 17 17 15 14 13 14 12 11 11 12 12 12 11 10
72 79 93 87 71 62 62 60 58 59 60 62 59 56 56 56 54 52 48 46 44 40 33 26 22 21 20 18 17 21 21 20 21 17 15 19 17 15 15 14 15 14 13
71 70 67 60 55 56 60 65 68 70 67 64 62 61 61 56 53 50 46 40 32 25 22 21 21 22 22 21 21 26 30 29 32 30 26 27 24 23 24 24 22 24 22
67 63 58 55 60 68 74 76 73 70 68 68 69 63 60 55 51 47 38 31 26 25 24 26 26 26 26 30 28 31 34 39 43 40 45 48 40 32 28 28 31 29 31
63 62 67 74 73 75 76 76 69 67 68 66 62 58 55 51 46 39 32 29 28 28 30 32 32 34 36 37 40 40 39 47 49 50 42 42 39 40 41 38 37 43 45
64 68 74 74 74 69 71 72 72 71 67 62 58 54 48 41 37 35 35 34 33 35 37 37 37 44 48 41 41 45 47 51 50 52 61 55 44 39 42 40 38 41 50